Polfoss — V2PN7 — position and weather

sailwx.info

Track history (hours):
 
Tides and Currents Weather Stations Pressure Air Temp Water Temp Dewpoint Dewpoint Depression Visibility Wind Speed Wind Dir Waves Ship Positions

Polfoss

Last reported at 2014-Aug-01 15:34 UTC. Time now 2014-Aug-01 16:06 UTC.
Position N 58°52' E 005°45'.

Length 82 m; draft 5.7 m.

Type: Cargo ship. MMSI: 305081000.

Date/timePositionNaut miles runAvg speedWind from/ knotsBaromVisibWave heightAir tempDewpointWater temp
2014-Aug-01 15:34N 58°52' E 005°45'10 9.8
2014-Aug-01 14:33N 59°01' E 005°41'1111.3
2014-Aug-01 13:33N 58°51' E 005°30'1514.8
2014-Aug-01 12:33N 58°45' E 005°05'21614.9
2014-Jul-31 22:04N 57°21' W 001°11'1015.3
2014-Jul-31 21:24N 57°17' W 001°28'1415.4
2014-Jul-31 20:30N 57°11' W 001°52'8 8.2
2014-Jul-31 19:33N 57°09' W 002°05'0 0.0
2014-Jul-31 18:33N 57°09' W 002°05'0 0.0
2014-Jul-31 17:33N 57°09' W 002°05'0 0.0
2014-Jul-31 16:33N 57°09' W 002°05'0 0.0
2014-Jul-31 15:33N 57°09' W 002°05'0 0.0
2014-Jul-31 14:33N 57°09' W 002°05'0 0.0
2014-Jul-31 13:33N 57°09' W 002°05'0 0.0
2014-Jul-31 12:33N 57°09' W 002°05'13113.1
2014-Jul-31 02:32N 55°07' W 000°36'1814.8
2014-Jul-31 01:18N 54°51' W 000°24'1115.2
2014-Jul-31 00:33N 54°40' W 000°17'1515.5
2014-Jul-30 23:33N 54°26' W 000°07'1615.5
2014-Jul-30 22:33N 54°11' E 000°03'1515.0
2014-Jul-30 21:33N 53°57' E 000°12'1414.5
2014-Jul-30 20:34N 53°44' E 000°21'1212.0
2014-Jul-30 19:33N 53°33' E 000°13'1010.3
2014-Jul-30 18:33N 53°35' W 000°04'0 0.3
2014-Jul-30 17:30N 53°35' W 000°04'0 0.0
2014-Jul-30 16:32N 53°35' W 000°04'0 0.0
2014-Jul-30 15:19N 53°35' W 000°04'0 0.0
2014-Jul-30 14:31N 53°35' W 000°04'0 0.0
2014-Jul-30 13:33N 53°35' W 000°04'0 0.0
2014-Jul-30 12:24N 53°35' W 000°04'0 0.0
2014-Jul-30 11:26N 53°35' W 000°04'0 0.0
2014-Jul-30 10:25N 53°35' W 000°04'0 0.0
2014-Jul-30 09:25N 53°35' W 000°04'0 0.0
2014-Jul-30 08:27N 53°35' W 000°04'0 0.0
2014-Jul-30 07:33N 53°35' W 000°04'0 0.0
2014-Jul-30 06:26N 53°35' W 000°04'0 0.0
2014-Jul-30 05:28N 53°35' W 000°04'0 0.0
2014-Jul-30 04:31N 53°35' W 000°04'0 0.0
2014-Jul-30 03:30N 53°35' W 000°04'0 0.0
2014-Jul-30 02:23N 53°35' W 000°04'0 0.0
2014-Jul-30 01:32N 53°35' W 000°04'0 0.0
2014-Jul-30 00:28N 53°35' W 000°04'0 0.0
2014-Jul-29 23:25N 53°35' W 000°04'0 0.0
2014-Jul-29 22:33N 53°35' W 000°04'0 0.0
2014-Jul-29 21:26N 53°35' W 000°04'0 0.0
2014-Jul-29 20:32N 53°35' W 000°04'0 0.0
2014-Jul-29 19:31N 53°35' W 000°04'0 0.0
2014-Jul-29 18:31N 53°35' W 000°04'7 7.2
2014-Jul-29 17:33N 53°34' E 000°07'6 6.5
2014-Jul-29 16:33N 53°32' E 000°17'8 8.0
2014-Jul-29 15:31N 53°28' E 000°30'8 8.0
2014-Jul-29 14:33N 53°25' E 000°42'10 9.8
2014-Jul-29 13:33N 53°21' E 000°57'1212.2
2014-Jul-29 12:33N 53°16' E 001°15'1414.2
2014-Jul-29 11:33N 53°10' E 001°37'1413.8
2014-Jul-29 10:33N 53°04' E 001°58'1812.8
2014-Jul-29 09:11N 52°56' E 002°24'6413.8
2014-Jul-29 04:33N 52°31' E 004°01'2210.8
2014-Jul-29 02:34N 52°28' E 004°36'2 2.3
2014-Jul-29 01:32N 52°28' E 004°40'0 0.0
2014-Jul-29 00:32N 52°28' E 004°40'0 0.0
2014-Jul-28 23:31N 52°28' E 004°40'0 0.0
2014-Jul-28 22:33N 52°28' E 004°40'0 0.0
2014-Jul-28 21:33N 52°28' E 004°40'0 0.0
2014-Jul-28 20:32N 52°28' E 004°40'0 0.0
2014-Jul-28 19:31N 52°28' E 004°40'0 0.0
2014-Jul-28 18:31N 52°28' E 004°40'0 0.0
2014-Jul-28 17:33N 52°28' E 004°40'0 0.0
2014-Jul-28 16:33N 52°28' E 004°40'0 0.0
2014-Jul-28 14:28N 52°28' E 004°40'0 0.0
2014-Jul-28 13:31N 52°28' E 004°40'0 0.0
2014-Jul-28 12:33N 52°28' E 004°40'0 0.0
2014-Jul-28 11:32N 52°28' E 004°40'0 0.0
2014-Jul-28 10:32N 52°28' E 004°40'0 0.0
2014-Jul-28 09:31N 52°28' E 004°40'0 0.0
2014-Jul-28 08:33N 52°28' E 004°40'0 0.0
2014-Jul-28 07:33N 52°28' E 004°40'0 0.0
2014-Jul-28 06:32N 52°28' E 004°40'0 0.0
2014-Jul-28 04:31N 52°28' E 004°40'0 0.0
2014-Jul-28 03:33N 52°28' E 004°40'0 0.0
2014-Jul-28 02:33N 52°28' E 004°40'0 0.0
2014-Jul-28 01:29N 52°28' E 004°40'0 0.0
2014-Jul-28 00:28N 52°28' E 004°40'0 0.0
2014-Jul-27 23:31N 52°28' E 004°40'0 0.0
2014-Jul-27 22:33N 52°28' E 004°40'0 0.0
2014-Jul-27 21:32N 52°28' E 004°40'0 0.0
2014-Jul-27 20:32N 52°28' E 004°40'0 0.0
2014-Jul-27 19:31N 52°28' E 004°40'0 0.0
2014-Jul-27 18:31N 52°28' E 004°40'0 0.0
2014-Jul-27 17:33N 52°28' E 004°40'0 0.0
2014-Jul-27 16:32N 52°28' E 004°40'0 0.0
2014-Jul-27 15:32N 52°28' E 004°40'0 0.0
2014-Jul-27 14:32N 52°28' E 004°40'3 3.0
2014-Jul-27 13:33N 52°28' E 004°35'1111.0
2014-Jul-27 12:33N 52°39' E 004°29'1515.3
2014-Jul-27 11:33N 52°54' E 004°29'1615.5
2014-Jul-27 10:32N 53°09' E 004°34'28814.4
2014-Jul-26 14:32N 57°57' E 005°15'4614.4
2014-Jul-26 11:21N 58°43' E 005°18'1214.6
2014-Jul-26 10:33N 58°54' E 005°18'1514.5
2014-Jul-26 09:33N 59°09' E 005°20'1414.2
2014-Jul-26 08:33N 59°23' E 005°18'5312.8
2014-Jul-26 04:28N 60°15' E 005°09'1111.6
2014-Jul-26 03:31N 60°26' E 005°03'  
2014-Jul-23 08:33N 64°50' E 011°10'1413.6
2014-Jul-23 07:33N 64°58' E 011°34'1413.9
2014-Jul-23 06:33N 65°10' E 011°51'2512.7
2014-Jul-23 04:33N 65°35' E 012°08'3414.2
2014-Jul-23 02:10N 66°06' E 012°42'1314.2
2014-Jul-23 01:14N 66°18' E 012°56'1114.3
2014-Jul-23 00:30N 66°28' E 012°59'1312.8
2014-Jul-22 23:31N 66°40' E 013°08'1413.9
2014-Jul-22 22:32N 66°53' E 013°20'1414.3
2014-Jul-22 21:33N 67°07' E 013°14'2914.4
2014-Jul-22 19:33N 67°34' E 012°47'  
Track history (hours):
 
Tides and Currents Weather Stations Pressure Air Temp Water Temp Dewpoint Dewpoint Depression Visibility Wind Speed Wind Dir Waves Ship Positions

Polfoss

Last reported at 2014-Aug-01 15:34 UTC. Time now 2014-Aug-01 16:06 UTC.
Position N 58°52' E 005°45'.

Length 82 m; draft 5.7 m.

Type: Cargo ship. MMSI: 305081000.

Date/timePositionNaut miles runAvg speedWind from/ knotsBaromVisibWave heightAir tempDewpointWater temp
2014-Aug-01 15:34N 58°52' E 005°45'10 9.8
2014-Aug-01 14:33N 59°01' E 005°41'1111.3
2014-Aug-01 13:33N 58°51' E 005°30'1514.8
2014-Aug-01 12:33N 58°45' E 005°05'21614.9
2014-Jul-31 22:04N 57°21' W 001°11'1015.3
2014-Jul-31 21:24N 57°17' W 001°28'1415.4
2014-Jul-31 20:30N 57°11' W 001°52'8 8.2
2014-Jul-31 19:33N 57°09' W 002°05'0 0.0
2014-Jul-31 18:33N 57°09' W 002°05'0 0.0
2014-Jul-31 17:33N 57°09' W 002°05'0 0.0
2014-Jul-31 16:33N 57°09' W 002°05'0 0.0
2014-Jul-31 15:33N 57°09' W 002°05'0 0.0
2014-Jul-31 14:33N 57°09' W 002°05'0 0.0
2014-Jul-31 13:33N 57°09' W 002°05'0 0.0
2014-Jul-31 12:33N 57°09' W 002°05'13113.1
2014-Jul-31 02:32N 55°07' W 000°36'1814.8
2014-Jul-31 01:18N 54°51' W 000°24'1115.2
2014-Jul-31 00:33N 54°40' W 000°17'1515.5
2014-Jul-30 23:33N 54°26' W 000°07'1615.5
2014-Jul-30 22:33N 54°11' E 000°03'1515.0
2014-Jul-30 21:33N 53°57' E 000°12'1414.5
2014-Jul-30 20:34N 53°44' E 000°21'1212.0
2014-Jul-30 19:33N 53°33' E 000°13'1010.3
2014-Jul-30 18:33N 53°35' W 000°04'0 0.3
2014-Jul-30 17:30N 53°35' W 000°04'0 0.0
2014-Jul-30 16:32N 53°35' W 000°04'0 0.0
2014-Jul-30 15:19N 53°35' W 000°04'0 0.0
2014-Jul-30 14:31N 53°35' W 000°04'0 0.0
2014-Jul-30 13:33N 53°35' W 000°04'0 0.0
2014-Jul-30 12:24N 53°35' W 000°04'0 0.0
2014-Jul-30 11:26N 53°35' W 000°04'0 0.0
2014-Jul-30 10:25N 53°35' W 000°04'0 0.0
2014-Jul-30 09:25N 53°35' W 000°04'0 0.0
2014-Jul-30 08:27N 53°35' W 000°04'0 0.0
2014-Jul-30 07:33N 53°35' W 000°04'0 0.0
2014-Jul-30 06:26N 53°35' W 000°04'0 0.0
2014-Jul-30 05:28N 53°35' W 000°04'0 0.0
2014-Jul-30 04:31N 53°35' W 000°04'0 0.0
2014-Jul-30 03:30N 53°35' W 000°04'0 0.0
2014-Jul-30 02:23N 53°35' W 000°04'0 0.0
2014-Jul-30 01:32N 53°35' W 000°04'0 0.0
2014-Jul-30 00:28N 53°35' W 000°04'0 0.0
2014-Jul-29 23:25N 53°35' W 000°04'0 0.0
2014-Jul-29 22:33N 53°35' W 000°04'0 0.0
2014-Jul-29 21:26N 53°35' W 000°04'0 0.0
2014-Jul-29 20:32N 53°35' W 000°04'0 0.0
2014-Jul-29 19:31N 53°35' W 000°04'0 0.0
2014-Jul-29 18:31N 53°35' W 000°04'7 7.2
2014-Jul-29 17:33N 53°34' E 000°07'6 6.5
2014-Jul-29 16:33N 53°32' E 000°17'8 8.0
2014-Jul-29 15:31N 53°28' E 000°30'8 8.0
2014-Jul-29 14:33N 53°25' E 000°42'10 9.8
2014-Jul-29 13:33N 53°21' E 000°57'1212.2
2014-Jul-29 12:33N 53°16' E 001°15'1414.2
2014-Jul-29 11:33N 53°10' E 001°37'1413.8
2014-Jul-29 10:33N 53°04' E 001°58'1812.8
2014-Jul-29 09:11N 52°56' E 002°24'6413.8
2014-Jul-29 04:33N 52°31' E 004°01'2210.8
2014-Jul-29 02:34N 52°28' E 004°36'2 2.3
2014-Jul-29 01:32N 52°28' E 004°40'0 0.0
2014-Jul-29 00:32N 52°28' E 004°40'0 0.0
2014-Jul-28 23:31N 52°28' E 004°40'0 0.0
2014-Jul-28 22:33N 52°28' E 004°40'0 0.0
2014-Jul-28 21:33N 52°28' E 004°40'0 0.0
2014-Jul-28 20:32N 52°28' E 004°40'0 0.0
2014-Jul-28 19:31N 52°28' E 004°40'0 0.0
2014-Jul-28 18:31N 52°28' E 004°40'0 0.0
2014-Jul-28 17:33N 52°28' E 004°40'0 0.0
2014-Jul-28 16:33N 52°28' E 004°40'0 0.0
2014-Jul-28 14:28N 52°28' E 004°40'0 0.0
2014-Jul-28 13:31N 52°28' E 004°40'0 0.0
2014-Jul-28 12:33N 52°28' E 004°40'0 0.0
2014-Jul-28 11:32N 52°28' E 004°40'0 0.0
2014-Jul-28 10:32N 52°28' E 004°40'0 0.0
2014-Jul-28 09:31N 52°28' E 004°40'0 0.0
2014-Jul-28 08:33N 52°28' E 004°40'0 0.0
2014-Jul-28 07:33N 52°28' E 004°40'0 0.0
2014-Jul-28 06:32N 52°28' E 004°40'0 0.0
2014-Jul-28 04:31N 52°28' E 004°40'0 0.0
2014-Jul-28 03:33N 52°28' E 004°40'0 0.0
2014-Jul-28 02:33N 52°28' E 004°40'0 0.0
2014-Jul-28 01:29N 52°28' E 004°40'0 0.0
2014-Jul-28 00:28N 52°28' E 004°40'0 0.0
2014-Jul-27 23:31N 52°28' E 004°40'0 0.0
2014-Jul-27 22:33N 52°28' E 004°40'0 0.0
2014-Jul-27 21:32N 52°28' E 004°40'0 0.0
2014-Jul-27 20:32N 52°28' E 004°40'0 0.0
2014-Jul-27 19:31N 52°28' E 004°40'0 0.0
2014-Jul-27 18:31N 52°28' E 004°40'0 0.0
2014-Jul-27 17:33N 52°28' E 004°40'0 0.0
2014-Jul-27 16:32N 52°28' E 004°40'0 0.0
2014-Jul-27 15:32N 52°28' E 004°40'0 0.0
2014-Jul-27 14:32N 52°28' E 004°40'3 3.0
2014-Jul-27 13:33N 52°28' E 004°35'1111.0
2014-Jul-27 12:33N 52°39' E 004°29'1515.3
2014-Jul-27 11:33N 52°54' E 004°29'1615.5
2014-Jul-27 10:32N 53°09' E 004°34'28814.4
2014-Jul-26 14:32N 57°57' E 005°15'4614.4
2014-Jul-26 11:21N 58°43' E 005°18'1214.6
2014-Jul-26 10:33N 58°54' E 005°18'1514.5
2014-Jul-26 09:33N 59°09' E 005°20'1414.2
2014-Jul-26 08:33N 59°23' E 005°18'5312.8
2014-Jul-26 04:28N 60°15' E 005°09'1111.6
2014-Jul-26 03:31N 60°26' E 005°03'  
2014-Jul-23 08:33N 64°50' E 011°10'1413.6
2014-Jul-23 07:33N 64°58' E 011°34'1413.9
2014-Jul-23 06:33N 65°10' E 011°51'2512.7
2014-Jul-23 04:33N 65°35' E 012°08'3414.2
2014-Jul-23 02:10N 66°06' E 012°42'1314.2
2014-Jul-23 01:14N 66°18' E 012°56'1114.3
2014-Jul-23 00:30N 66°28' E 012°59'1312.8
2014-Jul-22 23:31N 66°40' E 013°08'1413.9
2014-Jul-22 22:32N 66°53' E 013°20'1414.3
2014-Jul-22 21:33N 67°07' E 013°14'2914.4
2014-Jul-22 19:33N 67°34' E 012°47'  

Dump ship's entire track history